Time,TemperatureF,DewpointF,PressureIn,WindDirection,WindDirectionDegrees,WindSpeedMPH,WindSpeedGustMPH,Humidity,HourlyPrecipIn,Conditions,Clouds,dailyrainin,SoftwareType,DateUTC
2013-06-14 00:01:00,50.2,48.8,29.65,ENE,58,1.0,2.0,95,0.00,,,0.17,Wunderground v.1.15,2013-06-14 04:01:00,
2013-06-14 00:02:00,50.2,48.8,29.65,East,83,2.0,2.0,95,0.00,,,0.17,Wunderground v.1.15,2013-06-14 04:02:00,
2013-06-14 00:04:00,50.2,48.8,29.65,East,81,0.0,2.0,95,0.00,,,0.17,Wunderground v.1.15,2013-06-14 04:04:00,
2013-06-14 00:05:00,50.2,48.8,29.65,East,83,0.0,2.0,95,0.00,,,0.17,Wunderground v.1.15,2013-06-14 04:05:00,
2013-06-14 00:09:00,50.3,48.9,29.65,East,98,0.0,1.0,95,0.00,,,0.17,Wunderground v.1.15,2013-06-14 04:09:00,
2013-06-14 00:15:00,50.3,48.9,29.64,ESE,112,0.0,3.0,95,0.00,,,0.17,Wunderground v.1.15,2013-06-14 04:15:00,
2013-06-14 00:20:00,50.2,48.8,29.64,NNE,27,1.0,1.0,95,0.00,,,0.17,Wunderground v.1.15,2013-06-14 04:20:00,
2013-06-14 00:26:00,50.2,48.8,29.64,East,83,2.0,2.0,95,0.00,,,0.17,Wunderground v.1.15,2013-06-14 04:26:00,
2013-06-14 00:31:00,50.3,48.9,29.64,ENE,59,4.0,4.0,95,0.00,,,0.17,Wunderground v.1.15,2013-06-14 04:31:00,
2013-06-14 00:36:00,50.4,49.0,29.64,NE,34,1.0,4.0,95,0.00,,,0.17,Wunderground v.1.15,2013-06-14 04:36:00,
2013-06-14 00:41:00,50.5,49.1,29.64,East,100,5.0,5.0,95,0.00,,,0.00,Wunderground v.1.15,2013-06-14 04:41:00,
2013-06-14 00:47:00,50.5,49.1,29.64,East,79,1.0,5.0,95,0.00,,,0.00,Wunderground v.1.15,2013-06-14 04:47:00,
2013-06-14 00:52:00,50.5,49.1,29.64,NE,51,0.0,2.0,95,0.00,,,0.00,Wunderground v.1.15,2013-06-14 04:52:00,
2013-06-14 00:58:00,50.6,49.2,29.63,East,97,0.0,4.0,95,0.00,,,0.00,Wunderground v.1.15,2013-06-14 04:58:00,
2013-06-14 01:03:00,50.6,49.2,29.63,East,90,0.0,2.0,95,0.00,,,0.00,Wunderground v.1.15,2013-06-14 05:03:00,
2013-06-14 01:08:00,50.6,49.2,29.63,East,84,0.0,2.0,95,0.00,,,0.00,Wunderground v.1.15,2013-06-14 05:08:00,
2013-06-14 01:13:00,50.6,49.2,29.63,East,79,5.0,5.0,95,0.00,,,0.00,Wunderground v.1.15,2013-06-14 05:13:00,
2013-06-14 01:19:00,50.9,49.5,29.63,ENE,63,0.0,1.0,95,0.00,,,0.00,Wunderground v.1.15,2013-06-14 05:19:00,
2013-06-14 01:24:00,50.8,49.4,29.62,NE,55,0.0,2.0,95,0.00,,,0.00,Wunderground v.1.15,2013-06-14 05:24:00,
2013-06-14 01:30:00,50.9,49.5,29.62,NE,44,0.0,0.0,95,0.00,,,0.00,Wunderground v.1.15,2013-06-14 05:30:00,
2013-06-14 01:35:00,50.8,49.4,29.63,North,359,0.0,0.0,95,0.00,,,0.00,Wunderground v.1.15,2013-06-14 05:35:00,
2013-06-14 01:40:00,51.0,49.6,29.62,NW,326,0.0,0.0,95,0.00,,,0.00,Wunderground v.1.15,2013-06-14 05:40:00,
2013-06-14 01:46:00,50.9,49.5,29.62,North,352,1.0,1.0,95,0.00,,,0.00,Wunderground v.1.15,2013-06-14 05:46:00,
2013-06-14 01:51:00,50.8,49.4,29.62,North,1,2.0,2.0,95,0.00,,,0.00,Wunderground v.1.15,2013-06-14 05:51:00,
2013-06-14 01:57:00,51.0,49.6,29.62,ENE,70,0.0,3.0,95,0.00,,,0.00,Wunderground v.1.15,2013-06-14 05:57:00,
2013-06-14 02:02:00,51.0,49.6,29.62,ENE,71,0.0,1.0,95,0.00,,,0.00,Wunderground v.1.15,2013-06-14 06:02:00,
2013-06-14 02:07:00,50.9,49.5,29.62,ENE,71,0.0,1.0,95,0.00,,,0.00,Wunderground v.1.15,2013-06-14 06:07:00,
2013-06-14 02:12:00,50.7,49.3,29.62,ENE,71,0.0,0.0,95,0.00,,,0.00,Wunderground v.1.15,2013-06-14 06:12:00,
2013-06-14 02:17:00,50.7,49.3,29.62,NNW,348,0.0,2.0,95,0.00,,,0.00,Wunderground v.1.15,2013-06-14 06:17:00,
2013-06-14 02:22:00,50.7,49.6,29.62,ENE,60,2.0,2.0,96,0.00,,,0.00,Wunderground v.1.15,2013-06-14 06:22:00,
2013-06-14 02:27:00,51.0,49.6,29.62,ENE,69,0.0,4.0,95,0.00,,,0.00,Wunderground v.1.15,2013-06-14 06:27:00,
2013-06-14 02:32:00,51.2,49.8,29.62,East,88,0.0,2.0,95,0.00,,,0.00,Wunderground v.1.15,2013-06-14 06:32:00,
2013-06-14 02:37:00,51.1,49.7,29.62,ENE,60,0.0,3.0,95,0.00,,,0.00,Wunderground v.1.15,2013-06-14 06:37:00,
2013-06-14 02:42:00,51.1,49.7,29.62,NE,56,0.0,1.0,95,0.00,,,0.00,Wunderground v.1.15,2013-06-14 06:42:00,
2013-06-14 02:47:00,51.1,49.7,29.62,ENE,78,0.0,3.0,95,0.00,,,0.00,Wunderground v.1.15,2013-06-14 06:47:00,
2013-06-14 02:52:00,51.0,49.6,29.62,East,79,1.0,1.0,95,0.00,,,0.00,Wunderground v.1.15,2013-06-14 06:52:00,
2013-06-14 02:57:00,50.9,49.5,29.62,ENE,63,2.0,3.0,95,0.00,,,0.00,Wunderground v.1.15,2013-06-14 06:57:00,
2013-06-14 03:02:00,51.0,49.6,29.62,ENE,72,0.0,3.0,95,0.00,,,0.00,Wunderground v.1.15,2013-06-14 07:02:00,
2013-06-14 03:07:00,51.4,49.7,29.62,East,93,0.0,3.0,94,0.00,,,0.00,Wunderground v.1.15,2013-06-14 07:07:00,
2013-06-14 03:12:00,51.4,49.7,29.62,East,79,2.0,3.0,94,0.00,,,0.00,Wunderground v.1.15,2013-06-14 07:12:00,
2013-06-14 03:17:00,51.3,49.6,29.62,East,84,0.0,3.0,94,0.00,,,0.00,Wunderground v.1.15,2013-06-14 07:17:00,
2013-06-14 03:22:00,51.2,49.5,29.62,East,83,0.0,1.0,94,0.00,,,0.00,Wunderground v.1.15,2013-06-14 07:22:00,
2013-06-14 03:27:00,51.1,49.4,29.62,East,84,0.0,1.0,94,0.00,,,0.00,Wunderground v.1.15,2013-06-14 07:27:00,
2013-06-14 03:32:00,51.2,49.5,29.62,East,79,0.0,3.0,94,0.00,,,0.00,Wunderground v.1.15,2013-06-14 07:32:00,
2013-06-14 03:37:00,51.2,49.5,29.62,North,352,0.0,3.0,94,0.00,,,0.00,Wunderground v.1.15,2013-06-14 07:37:00,
2013-06-14 03:42:00,51.0,49.3,29.62,North,354,0.0,1.0,94,0.00,,,0.00,Wunderground v.1.15,2013-06-14 07:42:00,
2013-06-14 03:47:00,50.7,49.0,29.62,NNE,27,0.0,1.0,94,0.00,,,0.00,Wunderground v.1.15,2013-06-14 07:47:00,
2013-06-14 03:52:00,50.4,49.0,29.62,NNE,27,0.0,0.0,95,0.00,,,0.00,Wunderground v.1.15,2013-06-14 07:52:00,
2013-06-14 03:57:00,50.1,48.7,29.62,NNE,26,0.0,0.0,95,0.00,,,0.00,Wunderground v.1.15,2013-06-14 07:57:00,
2013-06-14 04:02:00,49.8,48.4,29.63,NNE,27,0.0,0.0,95,0.00,,,0.00,Wunderground v.1.15,2013-06-14 08:02:00,
2013-06-14 04:07:00,49.4,48.0,29.63,NNE,26,0.0,0.0,95,0.00,,,0.00,Wunderground v.1.15,2013-06-14 08:07:00,
2013-06-14 04:12:00,49.1,48.0,29.63,NNE,26,0.0,0.0,96,0.00,,,0.00,Wunderground v.1.15,2013-06-14 08:12:00,
2013-06-14 04:17:00,49.0,47.9,29.63,NNW,333,0.0,0.0,96,0.00,,,0.00,Wunderground v.1.15,2013-06-14 08:17:00,
2013-06-14 04:22:00,48.8,47.7,29.63,NNW,333,0.0,0.0,96,0.00,,,0.00,Wunderground v.1.15,2013-06-14 08:22:00,
2013-06-14 04:26:00,48.7,47.6,29.63,NNW,333,0.0,0.0,96,0.00,,,0.00,Wunderground v.1.15,2013-06-14 08:26:00,
2013-06-14 04:31:00,48.4,47.3,29.63,NNW,333,0.0,0.0,96,0.00,,,0.00,Wunderground v.1.15,2013-06-14 08:31:00,
2013-06-14 04:37:00,48.3,47.2,29.64,NNW,333,0.0,0.0,96,0.00,,,0.00,Wunderground v.1.15,2013-06-14 08:37:00,
2013-06-14 04:41:00,48.1,47.0,29.64,NNW,333,0.0,0.0,96,0.00,,,0.00,Wunderground v.1.15,2013-06-14 08:41:00,
2013-06-14 04:46:00,48.1,47.0,29.64,NNW,333,0.0,0.0,96,0.00,,,0.00,Wunderground v.1.15,2013-06-14 08:46:00,
2013-06-14 04:51:00,48.0,47.2,29.64,NNW,333,0.0,0.0,97,0.00,,,0.00,Wunderground v.1.15,2013-06-14 08:51:00,
2013-06-14 04:57:00,47.9,47.1,29.64,NNW,333,0.0,0.0,97,0.00,,,0.00,Wunderground v.1.15,2013-06-14 08:57:00,
2013-06-14 05:02:00,47.9,47.1,29.64,NNW,333,0.0,0.0,97,0.00,,,0.00,Wunderground v.1.15,2013-06-14 09:02:00,
2013-06-14 05:07:00,47.9,47.1,29.64,NNW,333,0.0,0.0,97,0.00,,,0.00,Wunderground v.1.15,2013-06-14 09:07:00,
2013-06-14 05:12:00,47.8,47.0,29.64,NNW,333,0.0,0.0,97,0.00,,,0.00,Wunderground v.1.15,2013-06-14 09:12:00,
2013-06-14 05:17:00,47.7,46.9,29.64,NNW,333,0.0,0.0,97,0.00,,,0.00,Wunderground v.1.15,2013-06-14 09:17:00,
2013-06-14 05:22:00,47.6,46.8,29.64,NNW,333,0.0,0.0,97,0.00,,,0.00,Wunderground v.1.15,2013-06-14 09:22:00,
2013-06-14 05:27:00,47.7,46.9,29.64,NNW,333,0.0,0.0,97,0.00,,,0.00,Wunderground v.1.15,2013-06-14 09:27:00,
2013-06-14 05:32:00,47.6,46.8,29.64,NNW,333,0.0,0.0,97,0.00,,,0.00,Wunderground v.1.15,2013-06-14 09:32:00,
2013-06-14 05:37:00,47.7,46.9,29.64,NNW,333,0.0,0.0,97,0.00,,,0.00,Wunderground v.1.15,2013-06-14 09:37:00,
2013-06-14 05:42:00,47.6,46.8,29.63,NNW,333,0.0,0.0,97,0.00,,,0.00,Wunderground v.1.15,2013-06-14 09:42:00,
2013-06-14 05:47:00,47.8,47.0,29.64,NNW,333,0.0,0.0,97,0.00,,,0.00,Wunderground v.1.15,2013-06-14 09:47:00,
2013-06-14 05:52:00,47.8,47.0,29.64,NNW,333,0.0,0.0,97,0.00,,,0.00,Wunderground v.1.15,2013-06-14 09:52:00,
2013-06-14 05:57:00,47.8,47.0,29.63,NNW,333,0.0,0.0,97,0.00,,,0.00,Wunderground v.1.15,2013-06-14 09:57:00,
2013-06-14 06:02:00,47.6,46.8,29.64,NNW,333,0.0,0.0,97,0.00,,,0.00,Wunderground v.1.15,2013-06-14 10:02:00,
2013-06-14 06:07:00,47.6,46.8,29.63,NNW,333,0.0,0.0,97,0.00,,,0.00,Wunderground v.1.15,2013-06-14 10:07:00,
2013-06-14 06:12:00,47.7,46.9,29.63,NNW,333,0.0,0.0,97,0.00,,,0.00,Wunderground v.1.15,2013-06-14 10:12:00,
2013-06-14 06:17:00,47.8,47.0,29.63,NNW,333,0.0,0.0,97,0.00,,,0.00,Wunderground v.1.15,2013-06-14 10:17:00,
2013-06-14 06:22:00,47.7,46.9,29.63,NNW,333,0.0,0.0,97,0.00,,,0.00,Wunderground v.1.15,2013-06-14 10:22:00,
2013-06-14 06:27:00,47.8,47.0,29.63,NNW,333,0.0,0.0,97,0.00,,,0.00,Wunderground v.1.15,2013-06-14 10:27:00,
2013-06-14 06:32:00,47.9,47.1,29.63,NNW,333,0.0,0.0,97,0.00,,,0.00,Wunderground v.1.15,2013-06-14 10:32:00,
2013-06-14 06:36:00,48.0,47.2,29.63,NNE,14,0.0,0.0,97,0.00,,,0.00,Wunderground v.1.15,2013-06-14 10:36:00,
2013-06-14 06:41:00,48.3,47.5,29.64,NNE,14,0.0,0.0,97,0.00,,,0.00,Wunderground v.1.15,2013-06-14 10:41:00,
2013-06-14 06:47:00,48.5,47.7,29.64,NNE,13,0.0,0.0,97,0.00,,,0.00,Wunderground v.1.15,2013-06-14 10:47:00,
2013-06-14 06:52:00,48.8,48.3,29.64,NNE,12,0.0,0.0,98,0.00,,,0.00,Wunderground v.1.15,2013-06-14 10:52:00,
2013-06-14 06:57:00,49.1,48.6,29.64,NNE,12,0.0,0.0,98,0.00,,,0.00,Wunderground v.1.15,2013-06-14 10:57:00,
2013-06-14 07:02:00,49.3,48.8,29.64,ENE,67,0.0,0.0,98,0.00,,,0.00,Wunderground v.1.15,2013-06-14 11:02:00,
2013-06-14 07:07:00,49.6,49.1,29.64,SE,124,0.0,1.0,98,0.00,,,0.00,Wunderground v.1.15,2013-06-14 11:07:00,
2013-06-14 07:12:00,50.0,49.5,29.64,SE,124,0.0,0.0,98,0.00,,,0.00,Wunderground v.1.15,2013-06-14 11:12:00,
2013-06-14 07:17:00,50.3,49.8,29.64,SE,124,0.0,0.0,98,0.00,,,0.00,Wunderground v.1.15,2013-06-14 11:17:00,
2013-06-14 07:22:00,50.6,50.1,29.64,SE,124,0.0,0.0,98,0.00,,,0.00,Wunderground v.1.15,2013-06-14 11:22:00,
2013-06-14 07:27:00,51.1,50.6,29.64,SE,124,0.0,0.0,98,0.00,,,0.00,Wunderground v.1.15,2013-06-14 11:27:00,
2013-06-14 07:32:00,51.0,50.2,29.64,West,259,0.0,1.0,97,0.00,,,0.00,Wunderground v.1.15,2013-06-14 11:32:00,
2013-06-14 07:37:00,51.2,50.4,29.64,WSW,239,0.0,2.0,97,0.00,,,0.00,Wunderground v.1.15,2013-06-14 11:37:00,
2013-06-14 07:42:00,51.4,50.6,29.64,WSW,242,0.0,1.0,97,0.00,,,0.00,Wunderground v.1.15,2013-06-14 11:42:00,
2013-06-14 07:47:00,52.0,51.2,29.64,WSW,242,0.0,1.0,97,0.00,,,0.00,Wunderground v.1.15,2013-06-14 11:47:00,
2013-06-14 07:52:00,52.4,51.6,29.64,WSW,240,0.0,0.0,97,0.00,,,0.00,Wunderground v.1.15,2013-06-14 11:52:00,
2013-06-14 07:57:00,52.6,51.5,29.65,South,176,0.0,2.0,96,0.00,,,0.00,Wunderground v.1.15,2013-06-14 11:57:00,
2013-06-14 08:02:00,52.9,51.8,29.65,South,180,0.0,1.0,96,0.00,,,0.00,Wunderground v.1.15,2013-06-14 12:02:00,
2013-06-14 08:07:00,53.6,52.2,29.65,South,180,0.0,1.0,95,0.00,,,0.00,Wunderground v.1.15,2013-06-14 12:07:00,
2013-06-14 08:12:00,54.5,53.1,29.65,SSE,164,0.0,0.0,95,0.00,,,0.00,Wunderground v.1.15,2013-06-14 12:12:00,
2013-06-14 08:17:00,55.0,53.3,29.65,SSE,157,1.0,2.0,94,0.00,,,0.00,Wunderground v.1.15,2013-06-14 12:17:00,
2013-06-14 08:22:00,55.5,53.2,29.65,SE,142,1.0,1.0,92,0.00,,,0.00,Wunderground v.1.15,2013-06-14 12:22:00,
2013-06-14 08:27:00,55.9,53.3,29.65,SE,124,1.0,2.0,91,0.00,,,0.00,Wunderground v.1.15,2013-06-14 12:27:00,
2013-06-14 08:32:00,56.4,53.8,29.65,WSW,256,2.0,3.0,91,0.00,,,0.00,Wunderground v.1.15,2013-06-14 12:32:00,
2013-06-14 08:37:00,56.4,53.5,29.65,WSW,245,1.0,4.0,90,0.00,,,0.00,Wunderground v.1.15,2013-06-14 12:37:00,
2013-06-14 08:42:00,56.8,54.2,29.66,West,263,0.0,2.0,91,0.00,,,0.00,Wunderground v.1.15,2013-06-14 12:42:00,
2013-06-14 08:47:00,57.2,54.3,29.66,SW,226,2.0,4.0,90,0.00,,,0.00,Wunderground v.1.15,2013-06-14 12:47:00,
2013-06-14 08:52:00,57.7,54.8,29.66,South,177,2.0,3.0,90,0.00,,,0.00,Wunderground v.1.15,2013-06-14 12:52:00,
2013-06-14 08:57:00,57.9,55.0,29.66,SE,143,1.0,4.0,90,0.00,,,0.00,Wunderground v.1.15,2013-06-14 12:57:00,
2013-06-14 09:02:00,58.6,55.4,29.66,WSW,246,2.0,5.0,89,0.00,,,0.00,Wunderground v.1.15,2013-06-14 13:02:00,
2013-06-14 09:07:00,58.8,55.3,29.67,South,181,0.0,5.0,88,0.00,,,0.00,Wunderground v.1.15,2013-06-14 13:07:00,
2013-06-14 09:12:00,58.4,54.9,29.66,SW,233,1.0,4.0,88,0.00,,,0.00,Wunderground v.1.15,2013-06-14 13:12:00,
2013-06-14 09:17:00,58.7,55.8,29.67,SSE,150,1.0,4.0,90,0.00,,,0.00,Wunderground v.1.15,2013-06-14 13:17:00,
2013-06-14 09:22:00,59.0,55.4,29.67,West,266,0.0,2.0,88,0.00,,,0.00,Wunderground v.1.15,2013-06-14 13:22:00,
2013-06-14 09:27:00,59.1,55.2,29.66,WSW,245,3.0,4.0,87,0.00,,,0.00,Wunderground v.1.15,2013-06-14 13:27:00,
2013-06-14 09:32:00,59.3,55.7,29.66,ESE,120,0.0,1.0,88,0.00,,,0.00,Wunderground v.1.15,2013-06-14 13:32:00,
2013-06-14 09:37:00,59.9,55.7,29.66,SW,232,1.0,2.0,86,0.00,,,0.00,Wunderground v.1.15,2013-06-14 13:37:00,
2013-06-14 09:42:00,60.6,56.7,29.66,SW,214,0.0,3.0,87,0.00,,,0.00,Wunderground v.1.15,2013-06-14 13:42:00,
2013-06-14 09:47:00,61.3,56.1,29.66,SE,136,0.0,4.0,83,0.00,,,0.00,Wunderground v.1.15,2013-06-14 13:47:00,
2013-06-14 09:52:00,61.0,56.5,29.66,SE,140,0.0,5.0,85,0.00,,,0.00,Wunderground v.1.15,2013-06-14 13:52:00,
2013-06-14 09:57:00,61.4,56.5,29.66,WSW,246,0.0,5.0,84,0.00,,,0.00,Wunderground v.1.15,2013-06-14 13:57:00,
2013-06-14 10:02:00,62.1,57.5,29.66,SW,214,2.0,2.0,85,0.00,,,0.00,Wunderground v.1.15,2013-06-14 14:02:00,
2013-06-14 10:07:00,62.1,57.5,29.66,WSW,242,2.0,6.0,85,0.00,,,0.00,Wunderground v.1.15,2013-06-14 14:07:00,
2013-06-14 10:12:00,62.8,57.2,29.66,SSE,148,4.0,5.0,82,0.00,,,0.00,Wunderground v.1.15,2013-06-14 14:12:00,
2013-06-14 10:17:00,62.9,58.0,29.66,SE,127,0.0,5.0,84,0.00,,,0.00,Wunderground v.1.15,2013-06-14 14:17:00,
2013-06-14 10:22:00,63.0,56.7,29.66,ESE,119,0.0,3.0,80,0.00,,,0.00,Wunderground v.1.15,2013-06-14 14:22:00,
2013-06-14 10:27:00,63.1,53.9,29.66,East,101,4.0,7.0,72,0.00,,,0.00,Wunderground v.1.15,2013-06-14 14:27:00,
2013-06-14 10:32:00,63.6,54.8,29.66,SE,145,2.0,4.0,73,0.00,,,0.00,Wunderground v.1.15,2013-06-14 14:32:00,
2013-06-14 10:37:00,64.2,55.7,29.66,East,84,1.0,6.0,74,0.00,,,0.00,Wunderground v.1.15,2013-06-14 14:37:00,
2013-06-14 10:42:00,64.2,55.0,29.67,North,352,3.0,7.0,72,0.00,,,0.00,Wunderground v.1.15,2013-06-14 14:42:00,
2013-06-14 10:47:00,64.1,53.3,29.67,ENE,72,2.0,10.0,68,0.00,,,0.00,Wunderground v.1.15,2013-06-14 14:47:00,
2013-06-14 10:52:00,64.0,53.2,29.67,East,93,1.0,5.0,68,0.00,,,0.00,Wunderground v.1.15,2013-06-14 14:52:00,
2013-06-14 10:57:00,64.4,52.8,29.67,West,278,2.0,6.0,66,0.00,,,0.00,Wunderground v.1.15,2013-06-14 14:57:00,
2013-06-14 11:02:00,65.1,52.2,29.67,ENE,72,4.0,9.0,63,0.00,,,0.00,Wunderground v.1.15,2013-06-14 15:02:00,
2013-06-14 11:07:00,65.2,55.6,29.67,NNE,32,2.0,9.0,71,0.00,,,0.00,Wunderground v.1.15,2013-06-14 15:07:00,
2013-06-14 11:12:00,65.6,52.2,29.67,ENE,70,3.0,7.0,62,0.00,,,0.00,Wunderground v.1.15,2013-06-14 15:12:00,
2013-06-14 11:17:00,65.7,53.6,29.67,North,356,1.0,11.0,65,0.00,,,0.00,Wunderground v.1.15,2013-06-14 15:17:00,
2013-06-14 11:22:00,65.6,51.3,29.67,NNW,335,4.0,6.0,60,0.00,,,0.00,Wunderground v.1.15,2013-06-14 15:22:00,
2013-06-14 11:27:00,66.2,54.1,29.67,ESE,116,5.0,6.0,65,0.00,,,0.00,Wunderground v.1.15,2013-06-14 15:27:00,
2013-06-14 11:32:00,66.5,52.6,29.67,NNE,24,5.0,8.0,61,0.00,,,0.00,Wunderground v.1.15,2013-06-14 15:32:00,
2013-06-14 11:37:00,66.3,51.5,29.67,North,352,6.0,10.0,59,0.00,,,0.00,Wunderground v.1.15,2013-06-14 15:37:00,
2013-06-14 11:42:00,65.5,49.9,29.67,NNW,343,2.0,12.0,57,0.00,,,0.00,Wunderground v.1.15,2013-06-14 15:42:00,
2013-06-14 11:47:00,64.7,55.1,29.67,North,352,3.0,12.0,71,0.00,,,0.00,Wunderground v.1.15,2013-06-14 15:47:00,
2013-06-14 11:52:00,63.7,56.4,29.67,West,281,1.0,5.0,77,0.00,,,0.00,Wunderground v.1.15,2013-06-14 15:52:00,
2013-06-14 11:57:00,63.1,55.8,29.67,NW,313,5.0,7.0,77,0.00,,,0.00,Wunderground v.1.15,2013-06-14 15:57:00,
2013-06-14 12:02:00,62.8,55.5,29.67,West,266,0.0,3.0,77,0.00,,,0.00,Wunderground v.1.15,2013-06-14 16:02:00,
2013-06-14 12:07:00,63.0,54.6,29.67,NW,313,5.0,8.0,74,0.00,,,0.00,Wunderground v.1.15,2013-06-14 16:07:00,
2013-06-14 12:12:00,62.2,54.9,29.67,NNW,348,4.0,9.0,77,0.00,,,0.00,Wunderground v.1.15,2013-06-14 16:12:00,
2013-06-14 12:17:00,62.5,56.9,29.68,West,263,3.0,9.0,82,0.00,,,0.00,Wunderground v.1.15,2013-06-14 16:17:00,
2013-06-14 12:22:00,63.7,57.1,29.67,NW,310,4.0,6.0,79,0.00,,,0.00,Wunderground v.1.15,2013-06-14 16:22:00,
2013-06-14 12:27:00,64.7,57.7,29.67,NW,308,7.0,7.0,78,0.00,,,0.00,Wunderground v.1.15,2013-06-14 16:27:00,
2013-06-14 12:32:00,65.8,58.0,29.67,NW,321,2.0,7.0,76,0.00,,,0.00,Wunderground v.1.15,2013-06-14 16:32:00,
2013-06-14 12:37:00,65.1,55.8,29.67,NW,307,2.0,10.0,72,0.00,,,0.00,Wunderground v.1.15,2013-06-14 16:37:00,
2013-06-14 12:42:00,64.7,56.2,29.67,NW,318,5.0,6.0,74,0.00,,,0.00,Wunderground v.1.15,2013-06-14 16:42:00,
2013-06-14 12:47:00,65.0,56.9,29.67,NNW,328,3.0,8.0,75,0.00,,,0.00,Wunderground v.1.15,2013-06-14 16:47:00,
2013-06-14 12:52:00,64.7,56.6,29.67,NW,321,3.0,7.0,75,0.00,,,0.00,Wunderground v.1.15,2013-06-14 16:52:00,
2013-06-14 12:57:00,63.7,56.4,29.67,WNW,284,2.0,7.0,77,0.00,,,0.00,Wunderground v.1.15,2013-06-14 16:57:00,
2013-06-14 13:02:00,63.5,56.5,29.67,WSW,245,2.0,4.0,78,0.00,,,0.00,Wunderground v.1.15,2013-06-14 17:02:00,
2013-06-14 13:07:00,64.1,56.4,29.67,NW,313,0.0,5.0,76,0.00,,,0.00,Wunderground v.1.15,2013-06-14 17:07:00,
2013-06-14 13:12:00,65.3,57.2,29.67,WNW,302,6.0,7.0,75,0.00,,,0.00,Wunderground v.1.15,2013-06-14 17:12:00,
2013-06-14 13:17:00,65.8,55.3,29.67,NW,314,2.0,8.0,69,0.00,,,0.00,Wunderground v.1.15,2013-06-14 17:17:00,
2013-06-14 13:22:00,65.6,55.5,29.67,West,259,4.0,8.0,70,0.00,,,0.00,Wunderground v.1.15,2013-06-14 17:22:00,
2013-06-14 13:27:00,65.7,57.2,29.67,SSE,147,2.0,8.0,74,0.00,,,0.00,Wunderground v.1.15,2013-06-14 17:27:00,
2013-06-14 13:32:00,66.4,58.2,29.67,NNW,347,2.0,4.0,75,0.00,,,0.00,Wunderground v.1.15,2013-06-14 17:32:00,
2013-06-14 13:37:00,67.8,58.1,29.67,WNW,297,2.0,5.0,71,0.00,,,0.00,Wunderground v.1.15,2013-06-14 17:37:00,
2013-06-14 13:42:00,66.9,56.8,29.67,SW,229,3.0,8.0,70,0.00,,,0.00,Wunderground v.1.15,2013-06-14 17:42:00,
2013-06-14 13:47:00,66.7,58.1,29.67,WNW,295,1.0,8.0,74,0.00,,,0.00,Wunderground v.1.15,2013-06-14 17:47:00,
2013-06-14 13:52:00,66.6,57.7,29.67,NW,318,3.0,12.0,73,0.00,,,0.00,Wunderground v.1.15,2013-06-14 17:52:00,
2013-06-14 13:57:00,66.2,55.7,29.67,WSW,255,1.0,12.0,69,0.00,,,0.00,Wunderground v.1.15,2013-06-14 17:57:00,
2013-06-14 14:02:00,66.4,56.3,29.67,NNW,341,4.0,4.0,70,0.00,,,0.00,Wunderground v.1.15,2013-06-14 18:02:00,
2013-06-14 14:07:00,66.8,57.5,29.67,NW,325,1.0,8.0,72,0.00,,,0.00,Wunderground v.1.15,2013-06-14 18:07:00,
2013-06-14 14:12:00,66.4,56.3,29.67,NW,304,7.0,8.0,70,0.00,,,0.00,Wunderground v.1.15,2013-06-14 18:12:00,
2013-06-14 14:17:00,66.0,57.1,29.67,WNW,302,1.0,8.0,73,0.00,,,0.00,Wunderground v.1.15,2013-06-14 18:17:00,
2013-06-14 14:22:00,65.9,56.6,29.67,NW,311,2.0,4.0,72,0.00,,,0.00,Wunderground v.1.15,2013-06-14 18:22:00,
2013-06-14 14:27:00,65.4,56.1,29.68,East,93,3.0,9.0,72,0.00,,,0.00,Wunderground v.1.15,2013-06-14 18:27:00,
2013-06-14 14:32:00,65.2,56.3,29.67,NNW,333,2.0,10.0,73,0.00,,,0.00,Wunderground v.1.15,2013-06-14 18:32:00,
2013-06-14 14:37:00,65.6,57.1,29.67,WNW,301,2.0,10.0,74,0.00,,,0.00,Wunderground v.1.15,2013-06-14 18:37:00,
2013-06-14 14:42:00,66.1,56.4,29.67,WNW,297,4.0,10.0,71,0.00,,,0.00,Wunderground v.1.15,2013-06-14 18:42:00,
2013-06-14 14:47:00,66.5,56.8,29.67,NNW,328,9.0,10.0,71,0.00,,,0.00,Wunderground v.1.15,2013-06-14 18:47:00,
2013-06-14 14:52:00,65.6,55.9,29.68,NNW,348,2.0,12.0,71,0.00,,,0.00,Wunderground v.1.15,2013-06-14 18:52:00,
2013-06-14 14:57:00,65.4,56.9,29.67,WNW,297,2.0,12.0,74,0.00,,,0.00,Wunderground v.1.15,2013-06-14 18:57:00,
2013-06-14 15:02:00,66.5,56.8,29.67,NW,317,4.0,9.0,71,0.00,,,0.00,Wunderground v.1.15,2013-06-14 19:02:00,
2013-06-14 15:07:00,67.5,56.6,29.67,NW,312,3.0,14.0,68,0.00,,,0.00,Wunderground v.1.15,2013-06-14 19:07:00,
2013-06-14 15:12:00,66.9,56.0,29.67,WNW,290,4.0,9.0,68,0.00,,,0.00,Wunderground v.1.15,2013-06-14 19:12:00,
2013-06-14 15:17:00,65.7,56.0,29.67,NW,304,4.0,9.0,71,0.00,,,0.00,Wunderground v.1.15,2013-06-14 19:17:00,
2013-06-14 15:22:00,64.9,55.7,29.67,NNW,328,5.0,8.0,72,0.00,,,0.00,Wunderground v.1.15,2013-06-14 19:22:00,
2013-06-14 15:27:00,65.7,57.2,29.67,NNW,344,5.0,9.0,74,0.00,,,0.00,Wunderground v.1.15,2013-06-14 19:27:00,
2013-06-14 15:32:00,66.7,55.8,29.67,West,278,2.0,9.0,68,0.00,,,0.00,Wunderground v.1.15,2013-06-14 19:32:00,
2013-06-14 15:37:00,66.7,55.8,29.67,SSW,207,1.0,10.0,68,0.00,,,0.00,Wunderground v.1.15,2013-06-14 19:37:00,
2013-06-14 15:42:00,66.4,55.5,29.67,North,3,2.0,8.0,68,0.00,,,0.00,Wunderground v.1.15,2013-06-14 19:42:00,
2013-06-14 15:47:00,66.0,55.9,29.67,NW,314,3.0,8.0,70,0.00,,,0.00,Wunderground v.1.15,2013-06-14 19:47:00,
2013-06-14 15:52:00,65.5,55.5,29.67,NW,309,2.0,4.0,70,0.00,,,0.00,Wunderground v.1.15,2013-06-14 19:52:00,
2013-06-14 15:57:00,65.5,55.8,29.67,NW,313,0.0,5.0,71,0.00,,,0.00,Wunderground v.1.15,2013-06-14 19:57:00,
2013-06-14 16:02:00,65.6,55.5,29.67,NW,308,2.0,6.0,70,0.00,,,0.00,Wunderground v.1.15,2013-06-14 20:02:00,
2013-06-14 16:07:00,65.9,55.8,29.67,West,266,2.0,7.0,70,0.00,,,0.00,Wunderground v.1.15,2013-06-14 20:07:00,
2013-06-14 16:12:00,66.9,56.0,29.67,West,269,2.0,6.0,68,0.00,,,0.00,Wunderground v.1.15,2013-06-14 20:12:00,
2013-06-14 16:17:00,68.0,56.2,29.67,West,278,4.0,9.0,66,0.00,,,0.00,Wunderground v.1.15,2013-06-14 20:17:00,
2013-06-14 16:22:00,68.6,56.8,29.67,West,264,2.0,7.0,66,0.00,,,0.00,Wunderground v.1.15,2013-06-14 20:22:00,
2013-06-14 16:27:00,68.0,55.4,29.67,WNW,288,1.0,7.0,64,0.00,,,0.00,Wunderground v.1.15,2013-06-14 20:27:00,
2013-06-14 16:32:00,67.2,55.0,29.67,NNW,337,4.0,4.0,65,0.00,,,0.00,Wunderground v.1.15,2013-06-14 20:32:00,
2013-06-14 16:37:00,66.9,54.7,29.67,NW,316,3.0,8.0,65,0.00,,,0.00,Wunderground v.1.15,2013-06-14 20:37:00,
2013-06-14 16:42:00,67.4,56.5,29.67,WNW,299,2.0,4.0,68,0.00,,,0.00,Wunderground v.1.15,2013-06-14 20:42:00,
2013-06-14 16:47:00,67.7,54.6,29.67,WNW,284,2.0,9.0,63,0.00,,,0.00,Wunderground v.1.15,2013-06-14 20:47:00,
2013-06-14 16:52:00,67.8,53.9,29.67,NW,316,5.0,14.0,61,0.00,,,0.00,Wunderground v.1.15,2013-06-14 20:52:00,
2013-06-14 16:57:00,68.7,53.3,29.67,West,270,6.0,14.0,58,0.00,,,0.00,Wunderground v.1.15,2013-06-14 20:57:00,
2013-06-14 17:02:00,69.3,53.9,29.67,NNW,328,5.0,8.0,58,0.00,,,0.00,Wunderground v.1.15,2013-06-14 21:02:00,
2013-06-14 17:07:00,69.6,53.7,29.67,NNW,330,9.0,14.0,57,0.00,,,0.00,Wunderground v.1.15,2013-06-14 21:07:00,
2013-06-14 17:12:00,69.7,52.3,29.67,WNW,294,6.0,13.0,54,0.00,,,0.00,Wunderground v.1.15,2013-06-14 21:12:00,
2013-06-14 17:17:00,70.1,53.2,29.67,WNW,291,5.0,13.0,55,0.00,,,0.00,Wunderground v.1.15,2013-06-14 21:17:00,
2013-06-14 17:22:00,70.3,51.8,29.67,NW,316,5.0,8.0,52,0.00,,,0.00,Wunderground v.1.15,2013-06-14 21:22:00,
2013-06-14 17:27:00,70.2,51.7,29.68,NW,316,7.0,15.0,52,0.00,,,0.00,Wunderground v.1.15,2013-06-14 21:27:00,
2013-06-14 17:32:00,69.9,51.5,29.68,NW,309,6.0,13.0,52,0.00,,,0.00,Wunderground v.1.15,2013-06-14 21:32:00,
2013-06-14 17:37:00,69.8,51.9,29.68,WNW,294,4.0,13.0,53,0.00,,,0.00,Wunderground v.1.15,2013-06-14 21:37:00,
2013-06-14 17:42:00,69.8,51.9,29.68,WNW,294,8.0,12.0,53,0.00,,,0.00,Wunderground v.1.15,2013-06-14 21:42:00,
2013-06-14 17:47:00,69.7,52.3,29.68,NW,316,3.0,12.0,54,0.00,,,0.00,Wunderground v.1.15,2013-06-14 21:47:00,
2013-06-14 17:52:00,69.5,51.6,29.68,NW,317,3.0,10.0,53,0.00,,,0.00,Wunderground v.1.15,2013-06-14 21:52:00,
2013-06-14 17:57:00,69.4,52.0,29.68,West,278,2.0,13.0,54,0.00,,,0.00,Wunderground v.1.15,2013-06-14 21:57:00,
2013-06-14 18:02:00,69.4,53.0,29.68,NW,305,4.0,11.0,56,0.00,,,0.00,Wunderground v.1.15,2013-06-14 22:02:00,
2013-06-14 18:07:00,69.1,52.2,29.68,West,264,4.0,11.0,55,0.00,,,0.00,Wunderground v.1.15,2013-06-14 22:07:00,
2013-06-14 18:12:00,68.7,52.4,29.68,WNW,294,6.0,13.0,56,0.00,,,0.00,Wunderground v.1.15,2013-06-14 22:12:00,
2013-06-14 18:17:00,68.5,52.2,29.69,NW,313,3.0,13.0,56,0.00,,,0.00,Wunderground v.1.15,2013-06-14 22:17:00,
2013-06-14 18:22:00,68.4,51.6,29.69,NW,321,7.0,12.0,55,0.00,,,0.00,Wunderground v.1.15,2013-06-14 22:22:00,
2013-06-14 18:27:00,68.2,51.9,29.69,SW,235,4.0,12.0,56,0.00,,,0.00,Wunderground v.1.15,2013-06-14 22:27:00,
2013-06-14 18:32:00,68.0,52.2,29.69,NW,311,6.0,14.0,57,0.00,,,0.00,Wunderground v.1.15,2013-06-14 22:32:00,
2013-06-14 18:37:00,67.9,51.6,29.69,NW,309,3.0,14.0,56,0.00,,,0.00,Wunderground v.1.15,2013-06-14 22:37:00,
2013-06-14 18:42:00,67.4,51.6,29.69,WNW,301,5.0,8.0,57,0.00,,,0.00,Wunderground v.1.15,2013-06-14 22:42:00,
2013-06-14 18:47:00,67.5,52.2,29.69,West,269,4.0,8.0,58,0.00,,,0.00,Wunderground v.1.15,2013-06-14 22:47:00,
2013-06-14 18:52:00,67.3,52.0,29.69,NNW,328,2.0,6.0,58,0.00,,,0.00,Wunderground v.1.15,2013-06-14 22:52:00,
2013-06-14 18:57:00,67.3,52.0,29.69,NW,309,5.0,9.0,58,0.00,,,0.00,Wunderground v.1.15,2013-06-14 22:57:00,
2013-06-14 19:02:00,67.1,51.8,29.70,NW,310,4.0,5.0,58,0.00,,,0.00,Wunderground v.1.15,2013-06-14 23:02:00,
2013-06-14 19:07:00,66.8,51.5,29.70,WNW,290,7.0,7.0,58,0.00,,,0.00,Wunderground v.1.15,2013-06-14 23:07:00,
2013-06-14 19:12:00,66.4,51.2,29.70,NW,321,9.0,12.0,58,0.00,,,0.00,Wunderground v.1.15,2013-06-14 23:12:00,
2013-06-14 19:17:00,66.0,51.7,29.70,NNW,334,2.0,12.0,60,0.00,,,0.00,Wunderground v.1.15,2013-06-14 23:17:00,
2013-06-14 19:22:00,65.4,51.6,29.71,WNW,284,0.0,4.0,61,0.00,,,0.00,Wunderground v.1.15,2013-06-14 23:22:00,
2013-06-14 19:27:00,65.0,51.2,29.71,WNW,292,2.0,8.0,61,0.00,,,0.00,Wunderground v.1.15,2013-06-14 23:27:00,
2013-06-14 19:32:00,64.6,51.3,29.71,WNW,283,2.0,7.0,62,0.00,,,0.00,Wunderground v.1.15,2013-06-14 23:32:00,
2013-06-14 19:37:00,64.3,51.4,29.72,WNW,284,4.0,8.0,63,0.00,,,0.00,Wunderground v.1.15,2013-06-14 23:37:00,
2013-06-14 19:42:00,64.2,51.3,29.72,NW,308,2.0,5.0,63,0.00,,,0.00,Wunderground v.1.15,2013-06-14 23:42:00,
2013-06-14 19:47:00,64.2,51.3,29.72,WNW,287,1.0,5.0,63,0.00,,,0.00,Wunderground v.1.15,2013-06-14 23:47:00,
2013-06-14 19:52:00,64.1,51.2,29.72,North,356,2.0,6.0,63,0.00,,,0.00,Wunderground v.1.15,2013-06-14 23:52:00,
2013-06-14 19:57:00,64.0,51.6,29.72,NW,304,2.0,6.0,64,0.00,,,0.00,Wunderground v.1.15,2013-06-14 23:57:00,
2013-06-14 20:02:00,63.8,51.8,29.72,NW,323,2.0,3.0,65,0.00,,,0.00,Wunderground v.1.15,2013-06-15 00:02:00,
2013-06-14 20:07:00,63.3,51.7,29.72,NW,316,2.0,4.0,66,0.00,,,0.00,Wunderground v.1.15,2013-06-15 00:07:00,
2013-06-14 20:12:00,62.6,51.9,29.72,WNW,301,2.0,3.0,68,0.00,,,0.00,Wunderground v.1.15,2013-06-15 00:12:00,
2013-06-14 20:17:00,62.1,51.8,29.72,NW,309,0.0,3.0,69,0.00,,,0.00,Wunderground v.1.15,2013-06-15 00:17:00,
2013-06-14 20:22:00,61.3,52.2,29.72,NW,311,0.0,1.0,72,0.00,,,0.00,Wunderground v.1.15,2013-06-15 00:22:00,
2013-06-14 20:27:00,60.7,52.0,29.72,NW,308,0.0,3.0,73,0.00,,,0.00,Wunderground v.1.15,2013-06-15 00:27:00,
2013-06-14 20:32:00,60.1,52.1,29.72,NW,308,0.0,0.0,75,0.00,,,0.00,Wunderground v.1.15,2013-06-15 00:32:00,
2013-06-14 20:37:00,59.3,51.7,29.72,NW,309,0.0,1.0,76,0.00,,,0.00,Wunderground v.1.15,2013-06-15 00:37:00,
2013-06-14 20:42:00,58.7,51.9,29.72,NW,309,0.0,1.0,78,0.00,,,0.00,Wunderground v.1.15,2013-06-15 00:42:00,
2013-06-14 20:47:00,58.3,51.5,29.72,NW,309,0.0,1.0,78,0.00,,,0.00,Wunderground v.1.15,2013-06-15 00:47:00,
2013-06-14 20:52:00,57.8,51.7,29.72,NW,309,0.0,0.0,80,0.00,,,0.00,Wunderground v.1.15,2013-06-15 00:52:00,
2013-06-14 20:57:00,57.5,51.7,29.73,NW,308,0.0,0.0,81,0.00,,,0.00,Wunderground v.1.15,2013-06-15 00:57:00,
2013-06-14 21:02:00,57.4,51.6,29.73,West,263,0.0,0.0,81,0.00,,,0.00,Wunderground v.1.15,2013-06-15 01:02:00,
2013-06-14 21:07:00,57.7,51.9,29.73,WNW,294,0.0,5.0,81,0.00,,,0.00,Wunderground v.1.15,2013-06-15 01:07:00,
2013-06-14 21:12:00,58.4,52.3,29.73,NNW,333,2.0,4.0,80,0.00,,,0.00,Wunderground v.1.15,2013-06-15 01:12:00,
2013-06-14 21:17:00,58.9,52.4,29.73,NW,316,1.0,4.0,79,0.00,,,0.00,Wunderground v.1.15,2013-06-15 01:17:00,
2013-06-14 21:22:00,59.1,52.2,29.73,NW,326,0.0,4.0,78,0.00,,,0.00,Wunderground v.1.15,2013-06-15 01:22:00,
2013-06-14 21:27:00,59.1,52.2,29.73,NW,309,3.0,4.0,78,0.00,,,0.00,Wunderground v.1.15,2013-06-15 01:27:00,
2013-06-14 21:32:00,59.1,52.2,29.73,NW,311,3.0,3.0,78,0.00,,,0.00,Wunderground v.1.15,2013-06-15 01:32:00,
2013-06-14 21:37:00,59.3,52.1,29.74,WNW,292,1.0,5.0,77,0.00,,,0.00,Wunderground v.1.15,2013-06-15 01:37:00,
2013-06-14 21:42:00,59.2,52.0,29.73,WNW,298,2.0,3.0,77,0.00,,,0.00,Wunderground v.1.15,2013-06-15 01:42:00,
2013-06-14 21:47:00,59.1,51.9,29.74,NNE,30,0.0,5.0,77,0.00,,,0.00,Wunderground v.1.15,2013-06-15 01:47:00,
2013-06-14 21:52:00,59.0,51.8,29.74,NNW,339,0.0,3.0,77,0.00,,,0.00,Wunderground v.1.15,2013-06-15 01:52:00,
2013-06-14 21:57:00,58.7,51.9,29.74,WNW,295,0.0,3.0,78,0.00,,,0.00,Wunderground v.1.15,2013-06-15 01:57:00,
2013-06-14 22:02:00,58.8,51.6,29.74,NW,323,0.0,3.0,77,0.00,,,0.00,Wunderground v.1.15,2013-06-15 02:02:00,
2013-06-14 22:07:00,58.8,51.6,29.74,West,260,0.0,3.0,77,0.00,,,0.00,Wunderground v.1.15,2013-06-15 02:07:00,
2013-06-14 22:12:00,58.8,51.2,29.74,West,280,1.0,8.0,76,0.00,,,0.00,Wunderground v.1.15,2013-06-15 02:12:00,
2013-06-14 22:17:00,59.1,51.2,29.74,NW,311,5.0,8.0,75,0.00,,,0.00,Wunderground v.1.15,2013-06-15 02:17:00,
2013-06-14 22:22:00,59.1,50.8,29.74,NW,311,2.0,4.0,74,0.00,,,0.00,Wunderground v.1.15,2013-06-15 02:22:00,
2013-06-14 22:27:00,59.0,50.7,29.74,NNW,336,2.0,5.0,74,0.00,,,0.00,Wunderground v.1.15,2013-06-15 02:27:00,
2013-06-14 22:32:00,58.8,50.5,29.75,West,266,0.0,3.0,74,0.00,,,0.00,Wunderground v.1.15,2013-06-15 02:32:00,
2013-06-14 22:37:00,58.6,50.0,29.75,NW,311,2.0,4.0,73,0.00,,,0.00,Wunderground v.1.15,2013-06-15 02:37:00,
2013-06-14 22:42:00,58.7,49.3,29.75,NNW,328,3.0,6.0,71,0.00,,,0.00,Wunderground v.1.15,2013-06-15 02:42:00,
2013-06-14 22:47:00,58.5,49.5,29.75,WNW,300,1.0,6.0,72,0.00,,,0.00,Wunderground v.1.15,2013-06-15 02:47:00,
2013-06-14 22:52:00,58.6,48.8,29.75,NW,309,1.0,7.0,70,0.00,,,0.00,Wunderground v.1.15,2013-06-15 02:52:00,
2013-06-14 22:57:00,58.4,48.7,29.75,West,278,1.0,7.0,70,0.00,,,0.00,Wunderground v.1.15,2013-06-15 02:57:00,
2013-06-14 23:02:00,58.1,48.0,29.75,WNW,297,2.0,3.0,69,0.00,,,0.00,Wunderground v.1.15,2013-06-15 03:02:00,
2013-06-14 23:07:00,58.2,48.1,29.75,SW,219,3.0,6.0,69,0.00,,,0.00,Wunderground v.1.15,2013-06-15 03:07:00,
2013-06-14 23:12:00,58.4,47.1,29.75,West,263,4.0,9.0,66,0.00,,,0.00,Wunderground v.1.15,2013-06-15 03:12:00,
2013-06-14 23:17:00,58.5,46.4,29.76,West,260,3.0,9.0,64,0.00,,,0.00,Wunderground v.1.15,2013-06-15 03:17:00,
2013-06-14 23:22:00,58.8,45.8,29.76,NNW,328,1.0,5.0,62,0.00,,,0.00,Wunderground v.1.15,2013-06-15 03:22:00,
2013-06-14 23:27:00,58.7,45.7,29.76,WNW,292,1.0,5.0,62,0.00,,,0.00,Wunderground v.1.15,2013-06-15 03:27:00,
2013-06-14 23:32:00,58.2,46.1,29.76,WNW,295,1.0,2.0,64,0.00,,,0.00,Wunderground v.1.15,2013-06-15 03:32:00,
2013-06-14 23:37:00,57.6,45.9,29.77,NW,326,2.0,2.0,65,0.00,,,0.00,Wunderground v.1.15,2013-06-15 03:37:00,
2013-06-14 23:42:00,57.4,46.1,29.76,WNW,303,2.0,6.0,66,0.00,,,0.00,Wunderground v.1.15,2013-06-15 03:42:00,
2013-06-14 23:47:00,57.1,45.8,29.77,NNW,337,1.0,6.0,66,0.00,,,0.00,Wunderground v.1.15,2013-06-15 03:47:00,
2013-06-14 23:52:00,56.8,46.3,29.77,NNE,22,1.0,3.0,68,0.00,,,0.00,Wunderground v.1.15,2013-06-15 03:52:00,
2013-06-14 23:57:00,56.5,46.1,29.77,NW,316,1.0,4.0,68,0.00,,,0.00,Wunderground v.1.15,2013-06-15 03:57:00,